Weather History for Jacksonville, FL

Change the Weather History Date:

Friday, April 19, 2013

  Actual Average Record
Temperature  
Mean Temperature 75 °F 68 °F  
Max Temperature 89 °F 80 °F 92 °F (1968)
Min Temperature 61 °F 55 °F 36 °F (2001)
Degree Days  
Heating Degree Days 0 1  
Month to date heating degree days 19 45  
Since 1 July heating degree days 1216 1334  
Cooling Degree Days 10 4  
Month to date cooling degree days 89 60  
Year to date cooling degree days 181 143  
Growing Degree Days 26 (Base 50)    
Moisture  
Dew Point 67 °F    
Average Humidity 72    
Maximum Humidity 97    
Minimum Humidity 46    
Precipitation  
Precipitation 0.15 in 0.09 in 4.53 in (1900)
Month to date precipitation 1.82 1.82  
Year to date precipitation 10.61 12.26  
Snow  
Snow 0.00 in 0.00 in 0.00 in (2002)
Month to date snowfall 0.0 0.0  
Since 1 July snowfall 0.0 T  
Snow Depth 0.00 in    
Sea Level Pressure  
Sea Level Pressure 29.96 in    
Wind  
Wind Speed 11 mph (SSW)    
Max Wind Speed 24 mph    
Max Gust Speed 32 mph    
Visibility 10 miles    
Events Rain    
T = Trace of Precipitation, MM = Missing Value Source: NWS Daily Summary

Daily Weather History Graph

Daily Weather History Graph

Search for Another Location

Airport:

Trip Planner

Search our weather history database for the weather conditions in past years. The results will help you decide how hot, cold, wet, or windy it might be!

Date:

Astronomy

Apr. 19, 2013 Rise Set
Actual Time 6:54 AM EDT 7:57 PM EDT
Civil Twilight 6:29 AM EDT 8:22 PM EDT
Nautical Twilight 6:00 AM EDT 8:51 PM EDT
Astronomical Twilight 5:30 AM EDT 9:22 PM EDT
Moon 2:05 PM EDT (4/19) 2:43 AM EDT (4/19)
Length of Visible Light 13h 52m
Length of Day
13h 02m
First Quarter, 61% of the Moon is Illuminated
Apr 19
First Quarter
Apr 25
Full
May 2
Last Quarter
May 9
New
May 18
First Quarter

Hourly Weather History & Observations

Time (EDT) Temp. Heat Index Dew Point Humidity Pressure Visibility Wind Dir Wind Speed Gust Speed Precip Events Conditions
12:56 AM 70.0 °F - 68.0 °F 93% 30.01 in 10.0 mi SSE 4.6 mph - N/A   Partly Cloudy
1:56 AM 72.0 °F - 69.1 °F 91% 29.99 in 10.0 mi SSE 8.1 mph - N/A   Scattered Clouds
2:56 AM 73.0 °F - 70.0 °F 90% 29.97 in 10.0 mi SSE 9.2 mph - N/A   Scattered Clouds
3:56 AM 73.0 °F - 70.0 °F 90% 29.96 in 10.0 mi SSE 10.4 mph - N/A   Mostly Cloudy
4:56 AM 73.9 °F - 70.0 °F 87% 29.95 in 10.0 mi South 11.5 mph 20.7 mph N/A   Mostly Cloudy
5:56 AM 73.0 °F - 66.9 °F 81% 29.97 in 10.0 mi South 19.6 mph 29.9 mph N/A   Overcast
6:56 AM 71.1 °F - 68.0 °F 90% 29.98 in 10.0 mi South 10.4 mph - 0.00 in   Overcast
7:56 AM 72.0 °F - 66.0 °F 81% 30.00 in 10.0 mi SSW 6.9 mph - N/A   Overcast
8:56 AM 73.9 °F - 66.0 °F 76% 30.01 in 10.0 mi South 5.8 mph - N/A   Mostly Cloudy
9:56 AM 78.1 °F - 70.0 °F 76% 30.00 in 10.0 mi South 11.5 mph 20.7 mph N/A   Mostly Cloudy
10:56 AM 82.4 °F 86.3 °F 69.8 °F 66% 30.00 in 10.0 mi South 16.1 mph 25.3 mph N/A   Mostly Cloudy
11:56 AM 84.0 °F 87.0 °F 68.0 °F 58% 29.99 in 10.0 mi SSW 17.3 mph 27.6 mph N/A   Mostly Cloudy
12:56 PM 84.9 °F 87.6 °F 66.9 °F 55% 29.96 in 10.0 mi South 16.1 mph 27.6 mph N/A   Mostly Cloudy
1:56 PM 86.0 °F 88.2 °F 66.0 °F 51% 29.93 in 10.0 mi SSW 17.3 mph 25.3 mph N/A   Mostly Cloudy
2:56 PM 87.1 °F 88.3 °F 64.0 °F 46% 29.90 in 10.0 mi South 16.1 mph 23.0 mph N/A   Mostly Cloudy
3:56 PM 82.0 °F 85.5 °F 69.1 °F 65% 29.88 in 10.0 mi SSW 6.9 mph - 0.00 in   Mostly Cloudy
4:56 PM 84.0 °F 87.0 °F 68.0 °F 58% 29.88 in 10.0 mi South 12.7 mph - N/A   Mostly Cloudy
5:56 PM 82.0 °F 85.5 °F 69.1 °F 65% 29.88 in 10.0 mi South 10.4 mph - N/A   Mostly Cloudy
6:56 PM 80.1 °F 83.2 °F 70.0 °F 71% 29.88 in 10.0 mi WSW 10.4 mph - 0.00 in Rain Light Rain
7:56 PM 77.0 °F - 69.1 °F 76% 29.92 in 10.0 mi West 6.9 mph - 0.00 in   Mostly Cloudy
8:56 PM 73.9 °F - 70.0 °F 87% 29.93 in 10.0 mi Calm Calm - N/A   Mostly Cloudy
9:40 PM 73.4 °F - 69.8 °F 88% 29.95 in 10.0 mi NW 9.2 mph - N/A   Overcast
9:56 PM 73.9 °F - 69.1 °F 85% 29.96 in 10.0 mi WNW 12.7 mph - N/A   Overcast
10:56 PM 69.1 °F - 63.0 °F 81% 29.99 in 10.0 mi NNW 15.0 mph 20.7 mph 0.00 in   Overcast
11:29 PM 62.6 °F - 60.8 °F 94% 30.01 in 2.0 mi NW 11.5 mph 23.0 mph 0.06 in Rain Heavy Rain
11:37 PM 62.6 °F - 59.0 °F 88% 30.02 in 4.0 mi WNW 13.8 mph - 0.10 in Rain Light Rain
11:56 PM 61.0 °F - 59.0 °F 93% 30.01 in 6.0 mi NW 9.2 mph - 0.13 in Rain Light Rain